Canberra, Australia

10:07 PM AEST on August 17, 2017 (GMT +1000)
Canberra

Weather History for YSCB - October, 2013

Change the Weather History Date:

Wednesday, October 30, 2013

  Actual Average Record
Temperature  
Mean Temperature 52 °F -  
Max Temperature 71 °F 73 °F - ()
Min Temperature 33 °F 48 °F - ()
Degree Days  
Heating Degree Days 13    
Growing Degree Days 2 (Base 50)    
Moisture  
Dew Point 36 °F    
Average Humidity 54    
Maximum Humidity 93    
Minimum Humidity 13    
Precipitation  
Precipitation 0.00 in 0.09 in - ()
Sea Level Pressure  
Sea Level Pressure 30.07 in    
Wind  
Wind Speed 6 mph ()    
Max Wind Speed 14 mph    
Max Gust Speed -    
Visibility 6.2 miles    
Events      
T = Trace of Precipitation, MM = Missing Value Source: Averaged Metar Reports

Daily Weather History Graph

Daily Weather History Graph

Search for Another Location

Airport or City:

Trip Planner

Search our weather history database for the weather conditions in past years. The results will help you decide how hot, cold, wet, or windy it might be!

Date:

Astronomy

Oct. 30, 2013 Rise Set
Actual Time 6:02 AM AEDT 7:31 PM AEDT
Civil Twilight 5:36 AM AEDT 7:58 PM AEDT
Nautical Twilight 5:03 AM AEDT 8:30 PM AEDT
Astronomical Twilight 4:30 AM AEDT 9:04 PM AEDT
Moon 3:11 AM AEDT (10/30) 3:09 PM AEDT (10/30)
Length of Visible Light 14h 22m
Length of Day
13h 28m
Waning Crescent, 22% of the Moon is Illuminated
Oct 30
Waning Crescent
Nov 3
New
Nov 10
First Quarter
Nov 18
Full
Nov 26
Last Quarter

Hourly Weather History & Observations

Time (AEDT) Temp. Windchill Dew Point Humidity Pressure Visibility Wind Dir Wind Speed Gust Speed Precip Events Conditions
12:00 AM 43 °F - 36 °F 68% 30.06 in - SE 4.6 mph - -  
12:00 AM 42.8 °F 40.1 °F 35.6 °F 76% 30.06 in 6.2 mi SE 4.6 mph - N/A   Unknown
12:30 AM 41.0 °F 39.0 °F 35.6 °F 81% 30.06 in 6.2 mi South 3.5 mph - N/A   Unknown
1:00 AM 41.0 °F 38.0 °F 35.6 °F 81% 30.06 in 6.2 mi South 4.6 mph - N/A   Unknown
1:30 AM 41.0 °F 35.8 °F 37.4 °F 87% 30.06 in 6.2 mi ESE 8.1 mph - N/A   Unknown
2:00 AM 41 °F - 36 °F 77% 30.05 in - ESE 9.2 mph - -  
2:00 AM 41.0 °F 35.2 °F 35.6 °F 81% 30.06 in 6.2 mi ESE 9.2 mph - N/A   Unknown
2:30 AM 41.0 °F 36.4 °F 35.6 °F 81% 30.06 in 6.2 mi SE 6.9 mph - N/A   Unknown
3:00 AM 39 °F - 34 °F 76% 30.05 in - SSE 5.8 mph - -  
3:00 AM 39.2 °F 35.0 °F 33.8 °F 81% 30.06 in 6.2 mi SSE 5.8 mph - N/A   Unknown
3:30 AM 37.4 °F 32.1 °F 33.8 °F 87% 30.06 in 6.2 mi ESE 6.9 mph - N/A   Unknown
4:00 AM 37.4 °F 32.8 °F 33.8 °F 87% 30.04 in 6.2 mi East 5.8 mph - N/A   Unknown
4:30 AM 35.6 °F 32.8 °F 30.2 °F 81% 30.06 in - NNE 3.5 mph - N/A   Clear
5:00 AM 35 °F - 31 °F 81% 30.06 in - ENE 3.5 mph - -  
5:00 AM 35.6 °F 32.8 °F 32.0 °F 87% 30.06 in - ENE 3.5 mph - N/A   Clear
5:30 AM 37.4 °F 34.9 °F 33.8 °F 87% 30.06 in - East 3.5 mph - N/A   Clear
6:00 AM 34 °F - 31 °F 85% 30.08 in - ESE 2.3 mph - -  
6:00 AM 33.8 °F - 30.2 °F 87% 30.09 in - ESE 2.3 mph - N/A   Clear
6:30 AM 35.6 °F 30.7 °F 33.8 °F 93% 30.09 in - North 5.8 mph - N/A   Clear
7:00 AM 35.6 °F 31.7 °F 32.0 °F 87% 30.09 in - NNW 4.6 mph - N/A   Clear
7:30 AM 41.0 °F - 37.4 °F 87% 30.12 in - North 1.2 mph - N/A   Clear
8:00 AM 47 °F - 37 °F 58% 30.11 in - SE 5.8 mph - -  
8:00 AM 48.2 °F - 37.4 °F 66% 30.12 in - SE 5.8 mph - N/A   Clear
8:30 AM 50.0 °F - 37.4 °F 62% 30.12 in - SE 8.1 mph - N/A   Clear
9:00 AM 51 °F - 35 °F 43% 30.13 in - ESE 5.8 mph - -  
9:00 AM 51.8 °F - 35.6 °F 54% 30.12 in - ESE 5.8 mph - N/A   Clear
9:30 AM 53.6 °F - 35.6 °F 51% 30.12 in - East 3.5 mph - N/A   Clear
10:00 AM 55.4 °F - 32.0 °F 41% 30.12 in - West 5.8 mph - N/A   Clear
10:30 AM 57.2 °F - 33.8 °F 41% 30.12 in - WSW 3.5 mph - N/A   Clear
11:00 AM 60 °F - 33 °F 24% 30.11 in - WNW 5.8 mph - -  
11:00 AM 59.0 °F - 32.0 °F 36% 30.12 in - WNW 5.8 mph - N/A   Clear
11:30 AM 60.8 °F - 30.2 °F 31% 30.09 in - WNW 6.9 mph - N/A   Clear
12:00 PM 62 °F - 24 °F 13% 30.09 in - SW 4.6 mph - -  
12:00 PM 60.8 °F - 24.8 °F 25% 30.09 in 6.2 mi SW 4.6 mph - N/A   Partly Cloudy
12:30 PM 64.4 °F - 28.4 °F 26% 30.09 in 6.2 mi WNW 6.9 mph - N/A   Partly Cloudy
1:00 PM 66.2 °F - 26.6 °F 23% 30.06 in 6.2 mi West 5.8 mph - N/A   Partly Cloudy
1:30 PM 66.2 °F - 26.6 °F 23% 30.06 in 6.2 mi North 6.9 mph - N/A   Partly Cloudy
2:00 PM 68 °F - 31 °F 14% 30.04 in - NNE 6.9 mph - -  
2:00 PM 68.0 °F - 30.2 °F 24% 30.06 in 6.2 mi NNE 6.9 mph - N/A   Partly Cloudy
2:30 PM 69.8 °F - 33.8 °F 27% 30.04 in 6.2 mi SE 3.5 mph - N/A   Partly Cloudy
3:00 PM 69 °F - 34 °F 17% 30.03 in - NNW 10.4 mph - -  
3:00 PM 68.0 °F - 33.8 °F 28% 30.04 in 6.2 mi NNW 10.4 mph - N/A   Partly Cloudy
3:30 PM 69.8 °F - 41.0 °F 35% 30.01 in 6.2 mi NNW 9.2 mph - N/A   Partly Cloudy
4:00 PM 69.8 °F - 39.2 °F 33% 30.01 in 6.2 mi North 12.7 mph - N/A   Partly Cloudy
4:30 PM 71.6 °F - 41.0 °F 33% 30.01 in 6.2 mi North 12.7 mph - N/A   Partly Cloudy
5:00 PM 70 °F - 39 °F 21% 30.01 in - NNW 11.5 mph - -  
5:00 PM 69.8 °F - 39.2 °F 33% 30.01 in 6.2 mi NNW 11.5 mph - N/A   Partly Cloudy
5:30 PM 69.8 °F - 41.0 °F 35% 30.01 in 6.2 mi NNW 10.4 mph - N/A   Partly Cloudy
6:00 PM 69 °F - 41 °F 25% 30.01 in - North 12.7 mph - -  
6:00 PM 69.8 °F - 41.0 °F 35% 30.01 in 6.2 mi North 12.7 mph - N/A   Partly Cloudy
6:30 PM 68.0 °F - 41.0 °F 37% 30.01 in 6.2 mi NNW 13.8 mph - N/A   Partly Cloudy
7:00 PM 66.2 °F - 39.2 °F 37% 30.04 in 6.2 mi North 12.7 mph - N/A   Partly Cloudy
7:30 PM 64.4 °F - 41.0 °F 42% 30.04 in 6.2 mi North 10.4 mph - N/A   Partly Cloudy
8:00 PM 62 °F - 41 °F 34% 30.04 in - North 10.4 mph - -  
8:00 PM 62.6 °F - 41.0 °F 45% 30.04 in 6.2 mi North 10.4 mph - N/A   Partly Cloudy
8:30 PM 60.8 °F - 41.0 °F 48% 30.06 in - North 10.4 mph - N/A   Clear
9:00 PM 60 °F - 40 °F 36% 30.07 in - NNE 11.5 mph - -  
9:00 PM 60.8 °F - 41.0 °F 48% 30.06 in 6.2 mi NNE 11.5 mph - N/A   Unknown
9:30 PM 59.0 °F - 42.8 °F 55% 30.09 in 6.2 mi NNE 10.4 mph - N/A   Unknown
10:00 PM 57.2 °F - 44.6 °F 63% 30.09 in 6.2 mi NE 10.4 mph - N/A   Unknown
10:30 PM 53.6 °F - 42.8 °F 67% 30.09 in 6.2 mi North 5.8 mph - N/A   Unknown
11:00 PM 52 °F - 44 °F 67% 30.11 in - NE 3.5 mph - -  
11:00 PM 51.8 °F - 44.6 °F 76% 30.12 in 6.2 mi NE 3.5 mph - N/A   Unknown
11:30 PM 50.0 °F - 44.6 °F 82% 30.12 in 6.2 mi East 6.9 mph - N/A   Unknown